Flag for Germany Weather past 2 weeks in Bautzen, Saxony, Germany

Now
56 °F

Light rain. Low clouds.


Feels Like: 56 °F
Forecast: 49 / 66 °F
Wind: 1 mph from Northwest

Location: Goerlitz

Current Time: Sep 4, 2015 at 12:19:21 AM

Latest Report: Sep 3, 2015 at 11:00 PM


Visibility: 9 mi

Pressure: 29.95 "Hg

Humidity: 94%

Dew point: 55 °F

Location of BautzenLocation

Historic Weather in Bautzen — Graph

°F

Bautzen temperature yesterday

Maximum temperature yesterday: 73 °F (at 3:00 PM)
Minimum temperature yesterday: 52 °F (at 2:00 AM)
Average temperature yesterday: 61 °F

Past Weeks' High & Low Weather Summary

 TemperatureHumidityPressure
High94 °F (Aug 31, 3:00 PM)99% (Aug 29, 2:00 AM)30.31 "Hg (Aug 29, 2:00 AM)
Low49 °F (Aug 21, 6:00 AM)25% (Aug 21, 4:00 PM)29.66 "Hg (Sep 1, 5:00 PM)
Average68 °F63%30.02 "Hg
* Reported Aug 19 11:00 PM — Sep 3 11:00 PM, Bautzen, Weather by CustomWeather, © 2015

Note: Actual official high and low records may vary slightly from our data, if they occured in-between our weather recording intervals... More about our weather records

Advertising

Bautzen weather history for previous 24 hours

 ConditionsComfort  
Time TempWeatherWind HumidityBarometerVisibility
11:00 PM
Thu, Sep 3
56 °FLight rain. Low clouds.1 mph94%29.95 "Hg9 mi
10:00 PM57 °FOvercast.1 mph94%29.95 "Hg6 mi
9:00 PM57 °FLight rain. Overcast.2 mph88%29.96 "Hg7 mi
8:00 PM62 °FOvercast.5 mph68%29.93 "Hg12 mi
7:00 PM65 °FOvercast.5 mph69%29.91 "Hg19 mi
6:00 PM67 °FOvercast.5 mph61%29.90 "Hg25 mi
5:00 PM67 °FOvercast.3 mph61%29.90 "Hg31 mi
4:00 PM68 °FPartly sunny.5 mph60%29.91 "Hg31 mi
3:00 PM73 °FPartly sunny.3 mph36%29.91 "Hg31 mi
2:00 PM71 °FScattered clouds.5 mph44%29.93 "Hg31 mi
1:00 PM71 °FScattered clouds.5 mph43%29.94 "Hg31 mi
12:00 PM69 °FPassing clouds.3 mph53%29.96 "Hg37 mi
11:00 AM66 °FScattered clouds.5 mph58%29.97 "Hg37 mi
10:00 AM62 °FPartly sunny.2 mph71%29.98 "Hg22 mi
9:00 AM58 °FOvercast.2 mph80%29.98 "Hg25 mi
8:00 AM56 °FPartly sunny.2 mph91%30.00 "Hg37 mi
7:00 AM56 °FPartly sunny.1 mph91%30.00 "Hg43 mi
5:00 AM54 °FOvercast.1 mph95%30.01 "Hg7 mi
4:00 AM54 °FOvercast.1 mph94%30.01 "Hg7 mi
3:00 AM54 °FOvercast.1 mph94%30.01 "Hg7 mi
2:00 AM52 °FPassing clouds.2 mph91%30.02 "Hg9 mi
1:00 AM54 °FPassing clouds.1 mph92%30.03 "Hg12 mi
Weather by CustomWeather, © 2015

See weather overviewHow to use our weather pages